Flag for U.S.A. Weather past 2 weeks in Pasco, Washington, U.S.A.

Now
38 °F

Fog.


Feels Like: 35 °F
Forecast: 33 / 48 °F
Wind: 3 mph from West

Location: Tri-Cities Airport

Current Time: Jan 26, 2015 at 1:22:12 AM

Latest Report: Jan 26, 2015 at 12:53 AM


Visibility: 4 mi

Pressure: 30.17 "Hg

Humidity: 100%

Dew point: 38 °F

Location of PascoLocation

Historic Weather in Pasco — Graph

°F

Pasco temperature yesterday

Maximum temperature yesterday: 42 °F (at 3:53 PM)
Minimum temperature yesterday: 30 °F (at 3:53 AM)
Average temperature yesterday: 36 °F

Past Weeks' High & Low Weather Summary

 TemperatureHumidityPressure
High57 °F (Jan 18, 2:53 PM)100% (Jan 11, 3:00 AM)30.61 "Hg (Jan 11, 3:00 AM)
Low27 °F (Jan 20, 1:53 AM)46% (Jan 19, 2:53 PM)29.85 "Hg (Jan 18, 1:53 AM)
Average37 °F91%30.35 "Hg
* Reported Jan 11 1:03 AM — Jan 26 12:01 AM, Pasco, Weather by CustomWeather, © 2014

Note: Actual official high and low records may vary slightly from our data, if they occured in-between our weather recording intervals... More about our weather records

Advertising

Pasco weather history for previous 24 hours

 ConditionsComfort  
Time TempWeatherWind HumidityBarometerVisibility
12:01 AM
Jan 26
39 °FLow clouds.No wind100%30.17 "Hg8 mi
10:53 PM
Jan 25
39 °FFog.3 mph100%30.20 "Hg5 mi
9:53 PM39 °FFog.3 mph100%30.21 "Hg4 mi
8:53 PM39 °FFog.5 mph100%30.21 "Hg4 mi
7:53 PM39 °FLow clouds.5 mph100%30.21 "Hg10 mi
6:53 PM39 °FLow clouds.5 mph100%30.21 "Hg10 mi
5:53 PM39 °FFog.8 mph96%30.23 "Hg3 mi
4:53 PM40 °FFog.8 mph100%30.22 "Hg1 mi
3:53 PM42 °FFog.7 mph92%30.23 "Hg2 mi
2:53 PM41 °FFog.6 mph96%30.23 "Hg2 mi
1:53 PM41 °FLow clouds.5 mph96%30.24 "Hg7 mi
12:53 PM39 °FFog.3 mph100%30.26 "Hg5 mi
11:53 AM38 °FFog.No wind100%30.28 "Hg5 mi
11:04 AM37 °FFog.No wind100%30.29 "Hg5 mi
10:53 AM38 °FFog.No wind100%30.30 "Hg2 mi
9:53 AM36 °FFog.No wind100%30.30 "Hg0 mi
8:53 AM34 °FFog.No wind100%30.30 "Hg0 mi
7:53 AM32 °FIce fog.No wind100%30.30 "Hg4 mi
6:53 AM31 °FIce fog.No wind100%30.29 "Hg6 mi
6:03 AM32 °FIce fog.3 mph100%30.28 "Hg6 mi
5:53 AM31 °FIce fog.3 mph100%30.29 "Hg6 mi
4:53 AM31 °FIce fog.6 mph100%30.29 "Hg6 mi
3:53 AM30 °FIce fog.5 mph100%30.28 "Hg6 mi
2:53 AM31 °FClear.No wind100%30.28 "Hg7 mi
1:53 AM33 °FClear.6 mph100%30.28 "Hg8 mi
Weather by CustomWeather, © 2014

See weather overviewHow to use our weather pages